Starlink 30944

operational
NORAD ID: 58451 Int'l Des: 2023-183 Owner: SPXS Country: US Constellation: starlink
LEOCIRCULAR

Über Starlink 30944

Beschreibung wird geladen...

Live-Position

3D-Globus wird geladen...

Nächste Überflüge

Höhenverlauf

Altitude vs Time

uPlot chart will show altitude changes over time

Zweizeiliger Elementsatz

1 58451U 23183Q 25258.35505057 .00001550 00000-0 12974-3 0 9999
2 58451 43.0028 275.6773 0001281 296.5382 63.5329 15.02544069100315
Epoch: 15. Sept. 2025 • Age: 20 hours

Aktueller Status

Höhe 563.0 km
Geschwindigkeit 7.59 km/s
Subsatellitenpunkt 43.15°N, 56.32°W
Startdatum 28. Nov. 2023
Alter 1.7 years
Typ internet

Technische Details

Klassifizierung Payload
Masse 730.00 kg
Trockenmasse 700.00 kg
Gesamtmasse 730.00 kg
Länge 0.30 m
Durchmesser 4.10 m
Spannweite 29.00 m
Form Box + pan
Hersteller SPXS
Bus-Typ Starlink V2M
Phasenstatus In Orbit
Besitzer/Staat SPXS/US

Große Konstellationen

Loading constellations...